Location: Eitze
(52.9840°N, 9.6894°E)
Time: 17:03:42
(UTC+00:00)

Cosmos 2278 - Pass Details

Date: 19 May 2025
Orbit: 839 x 850 km, 71.1° (Epoch: 17 June)

Event Time Altitude Azimuth Distance (km) Brightness Sun altitude
Rises 21:21:55 0° 329° (NNW) 3,407 8.9 -12.8°
Reaches altitude 10° 21:24:29 10° 335° (NNW) 2,468 7.6 -13.0°
Maximum altitude 21:29:56 46° 49° (NE) 1,115 4.4 -13.4°
Enters shadow 21:34:43 13° 120° (ESE) 2,229 5.4 -13.7°
